COSMOS 2491 DEB, 57569

Orbit data source: Space-Track

COSMOS 2491 DEB, 57569 is space debris in LEO originally from a launch on Wed, 25 Dec 2013 UTC launched from the Plesetsk Missile And Space Complex (PKMTR). Debris objects in space refer to the collection of defunct objects orbiting the Earth. Examples of debris include non-operational satellites, rocket bodies, and fragments generated from explosions, collisions, or faulty payload assembly.

Loading next visibility...
Identifier
57569, 2013-076BG
Orbit
LEO
Country
Flag of CISCIS
Related business
Manufacturer
TsNIIKhM
Mission
Spacecraft
Bus & Motor
Unknown
Mass
Unknown
Launch date (UTC)
2013-12-25 (13 years ago)
Launch vehicle
Unknown
Launch site
Plesetsk Missile And Space Complex (PKMTR)
Object type
Payload
Rocket body
Debris
Shape & HBR
Unknown shape, 0.1 m
Radar Cross Section
Small (<0.1 m²)

Expand to show TLE details & history
Last TLE update: 2 months ago

TLE from 2 months ago
0 COSMOS 2491 DEB
1 57569U 13076BG  26185.59615876  .00002482  00000-0  15322-1 0  9998
2 57569  82.4704 136.5912 0003954 239.9908 120.0786 12.54544981144665
Epoch: 2026-07-04T14:18Z
TLE epoch observation values (Epoch: 2026-07-04T14:18:28.116Z)
Latitude
-0.00007°
Longitude
-0.63354°
Altitude
1,449.809 km
Speed
7.136 km/s
True Right ascension
09h 06m 21s
True Declination
0° 00' 00"
Sunlit
Object was in daylight at epoch
Visualization orbit readout
Latitude
Unknown
Longitude
Unknown
Altitude
Unknown
Speed
Unknown
Apparent Right ascension
Unknown
Apparent Declination
Unknown
Sunlit
N/A
Visualization observer readout
Local Sidereal Time
21:37:15
Azimuth
Unknown
Elevation
Unknown
Doppler factor
Unknown
Orbital elements
Apogee altitude
1,445.97 km
Perigee altitude
1,439.785 km
Semi-major axis
7,821.015 km
Eccentricity
0.0004
Inclination
82.4704°
RAAN
136.5912°
Arg. of periapsis
239.9908°
True anomaly
120.1178°
Mean anomaly
120.0786°
Eccentric anomaly
120.0982°
Mean motion
3.13797 °/min
Orbital period
114.72 mins
BSTAR
0.015322
Loading maneuver chart data...
Computing Atmospheric mass density...
Loading historical data...
Loading historical data...
Loading historical data...
Loading historical data...
Loading historical data...
Loading historical data...
Loading historical data...

Documentation

Showing up to 5 results
|